User: anonymous   Login
Location: Vancouver
(49.2500°N, 123.1330°W)
Time: 08:25:43
(UTC-07:00)
Language:

BREEZE-M DEB (TANK) - Orbit

View from above orbital plane
View from above orbital plane
View from above satellite
View from above satellite

Ground track
Ground track

The orbit data is extracted from the following two-line orbital elements,

1 27821U 03024B   18110.72346779 +.00001100 +00000-0 +13106-3 0  9991
2 27821 049.6223 357.2273 4923682 265.0240 039.4254 05.77754945298201
Epoch (UTC): 20 April 2018 17:21:47
Eccentricity: 0.4923682
inclination: 49.6223°
perigee height: 281 km
apogee height: 13200 km
right ascension of ascending node: 357.2273°
argument of perigee: 265.0240°
revolutions per day: 5.77754945
mean anomaly at epoch: 39.4254°
orbit number at epoch: 29820

The dashed part of the orbit path shows where the satellite is in the earth's shadow,  

DLR